Voltar ao catálogo

POPSAT HIP 1

AtivoCiênciaPO
NORAD 40028·PAYLOAD·🇸🇬 Singapore

Lançado Jun 19, 2014 de Dombarovsky

Loading…

Próximas Passagens (próximas 24 horas)

TLE

AtualizadoSource: Space-Track

Época: Sep 14, 2026, 23:46 UTC

1 40028U 14033U   26257.99040919  .00004461  00000-0  23472-3 0  9994
2 40028  98.0991 274.8210 0005232 241.7041 118.3663 15.16214066666409

Acompanhe POPSAT HIP 1 em tempo real com AllMySat

Download on the App Store